PEARL WHITE 2 (44498 NORAD) Tracking and Keplerian Element Data

This shows tracking and keplerian element data for the satellite.

Feedback or suggestion? Click here.




ElementValue
Catalog44498
NamePEARL WHITE 2
Epoch Orbit409
Epoch Day258.64547146
Epoch Year2019
RAAN311.5953
Inclination45.0153
Eccentricity0.0010554
Argument of Perigee54.6061
Mean Anonmoly83.0346
Mean Motion15.08383944
Decay Rate4.6E-07
L11 44498U 19054D 19258.64547146 .00000046 00000-0 18638-4 0 9990
L22 44498 45.0153 311.5953 0010554 54.6061 83.0346 15.08383944 4095

Live tracking and technical data element details for PEARL WHITE 2 (NORAD 44498). PEARL WHITE 2 can be tracked NOW for your location showing map with azimuth and elevation plus other details from your city location.

Track the satellite on the map from your city or location and see movement details for azimuth, elevation, latitude, longitude, range, height, and movement on the map or in text.







IsCatalogInMostPopularTable: catalog: 44498, numindb: 14
Update: records affected: 1



GetName: 44498 PEARL WHITE 2

Hit Count: updated at: Thu, 19 Sep 2019 17:24:16 GMT